Regional Weather Roundup
Issued by NWS

Home | Current Version | Previous Version | Text Only | Print | Product List | Glossary On
Versions: 1 2 3 4 5 6 7 8 9 10 11 12 13 14 15 16 17 18 19 20 21 22 23 24 25 26 27 28 29 30 31 32 33 34 35 36 37 38 39 40 41 42 43 44 45 46 47 48 49
000
ASUS43 KDMX 300407
RWRIA

WEATHER ROUNDUP FOR IOWA
NATIONAL WEATHER SERVICE DES MOINES IA
1100 PM CDT MON SEP 29 2014

NOTE: "FAIR" INDICATES FEW OR NO CLOUDS BELOW 12,000 FEET WITH NO
SIGNIFICANT WEATHER AND/OR OBSTRUCTIONS TO VISIBILITY.

* - THESE STATIONS ARE NOT NWS STATIONS...THUS NOT UNDER NWS
QUALITY CONTROL.  THEY ALSO DO NOT REPORT WEATHER SUCH
AS PRECIPITATION OR FOG.

IAZ001>003-012>014-020>022-031>034-043>046-300500-
   NORTHWEST IOWA

CITY           SKY/WX    TMP DP  RH WIND       PRES   REMARKS
CARROLL *      MOCLDY    61  59  94 E3        30.00S
CHEROKEE *     CLEAR     59  55  88 NE8       30.01R
DENISON *      CLOUDY    61  61 100 E10       29.97S
LE MARS *        N/A     61  57  88 E8        29.99R
ORANGE CITY *  CLEAR     61  55  82 E9G16     29.99S
SHELDON *      PTCLDY    55  52  88 E9G18     30.00S
SIOUX CITY     CLOUDY    63  59  87 E9        29.98R
SPENCER        CLEAR     55  50  83 E13       30.03S
STORM LAKE *   CLEAR     57  57 100 E9        30.01S
$$

IAZ055>058-069>071-079>083-090>094-300500-
   SOUTHWEST IOWA

CITY           SKY/WX    TMP DP  RH WIND       PRES   REMARKS
ATLANTIC *     CLOUDY    64  63  94 NE6       29.97R
AUDUBON *      CLEAR     63  55  77 NE7       30.00S HAZE
CLARINDA *     CLEAR     55  54  94 CALM      29.97R
COUNCIL BLFS *   N/A     64  61  88 E6        29.95R
CRESTON *      CLEAR     64  57  77 S5        29.97S
HARLAN  *      CLEAR     63  63 100 NE7       30.01R
LAMONI         CLEAR     71  56  58 S5        29.96F
RED OAK *      CLEAR     59  55  88 CALM      29.96R FOG
SHENANDOAH *   CLEAR     61  55  82 CALM      29.95S
$$

IAZ047>049-059>061-072>074-084-300500-
   CENTRAL IOWA

CITY           SKY/WX    TMP DP  RH WIND       PRES   REMARKS
AMES           CLEAR     60  57  89 NE6       30.00S
ANKENY *       PTCLDY    63  59  88 NE8       29.99R
CHARITON *     MOCLDY    64  61  88 NE6       29.97S FOG
DES MOINES     CLEAR     66  59  78 NE10      29.98S
GRINNELL*      CLEAR     63  57  82 NE8       30.00S
KNOXVILLE *    CLEAR     66  61  82 NE8       29.96S
MARSHALLTOWN   CLEAR     58  54  86 NE13      30.00F
PELLA *        CLEAR     64  61  88 NE5       29.99S
PERRY *          N/A     63  59  88 E5        29.99S
$$

IAZ004>006-015-016-023>025-035-036-300500-
   NORTH CENTRAL IOWA

CITY           SKY/WX    TMP DP  RH WIND       PRES   REMARKS
ALGONA *       MOCLDY    54  50  87 E10       30.04S
CLARION *      CLEAR     55  50  82 E13G20    30.02F
ESTHERVILLE    CLEAR     51  49  92 E9        30.04S
FORT DODGE *   CLEAR     55  50  82 E9        30.02S
MASON CITY     CLEAR     51  49  92 E5        30.06S
FOREST CITY *  CLEAR     52  50  93 E3        30.04F
IOWA FALLS *   MOCLDY    55  50  82 NE10G16   30.03F
$$

IAZ007>011-017>019-026>030-037>042-050>054-066-300500-
   NORTHEAST IOWA

CITY           SKY/WX    TMP DP  RH WIND       PRES   REMARKS
CEDAR RAPIDS   CLEAR     63  57  82 NE10      29.99R
CHARLES CITY * CLEAR     52  48  87 NE7       30.05S
CLINTON *      CLEAR     57  52  82 NE14      30.02R
DECORAH *      CLOUDY    52  50  93 VRB3      30.05S
MONTICELLO *   CLOUDY    57  55  94 VRB7      30.01S
OELWEIN *      CLOUDY    55  50  82 NE14      30.04S
WATERLOO       CLEAR     53  49  86 NE8       30.03S
$$

IAZ064-065-067-068-078-300500-
   EAST CENTRAL IOWA

CITY           SKY/WX    TMP DP  RH WIND       PRES   REMARKS
IOWA CITY      CLEAR     65  60  84 NE12      29.99R
MT. PLEASANT * CLEAR     64  59  82 NW5       29.96R
MUSCATINE *    CLEAR     68  61  77 NE12      29.97R
$$

IAZ062-063-075>077-085>089-095>099-300500-
   SOUTHEAST IOWA

CITY           SKY/WX    TMP DP  RH WIND       PRES   REMARKS
BURLINGTON     CLEAR     64  60  87 CALM      29.95S
FAIRFIELD *    CLEAR     64  61  88 N9        29.97S
FORT MADISON * CLEAR     66  59  77 SW3       29.96S
KEOKUK *       CLEAR     64  61  88 CALM      29.95S
OSKALOOSA *      N/A     64  61  88 NE9       29.98S
CENTERVILLE *  CLEAR     59  59 100 CALM      29.98S
OTTUMWA        CLEAR     66  60  81 NE8       29.96F
WASHINGTON *   CLEAR     66  63  88 N9        29.97R
$$

ABBREVIATIONS USED IN REMARKS
   TC - TEMPERATURES IN CELSIUS
  WCI - WIND CHILL INDEX
   HX - HEAT INDEX
  VSB - VISIBILITY
$$



USA.gov is the U.S. government's official web portal to all federal, state and local government web resources and services.